Ellsworth AFB, SD

7:09 PM MDT on September 22, 2017 (GMT -0600)
Ellsworth Air Force Base

Weather History for KRCA - January, 2014

Change the Weather History Date:

Friday, January 17, 2014

  Actual Average Record
Temperature  
Mean Temperature 35 °F -  
Max Temperature 49 °F 35 °F 49 °F (2014)
Min Temperature 21 °F 15 °F -3 °F (2016)
Degree Days  
Heating Degree Days 30    
Moisture  
Dew Point 19 °F    
Average Humidity 53    
Maximum Humidity 74    
Minimum Humidity 33    
Precipitation  
Precipitation 0.00 in - - ()
Sea Level Pressure  
Sea Level Pressure 30.01 in    
Wind  
Wind Speed 11 mph (WNW)    
Max Wind Speed 36 mph    
Max Gust Speed 46 mph    
Visibility 10 miles    
Events      
Averages and records for this station are not official NWS values.
T = Trace of Precipitation, MM = Missing Value Source: NWS Daily Summary

Daily Weather History Graph

Daily Weather History Graph

Search for Another Location

Airport or City:

Trip Planner

Search our weather history database for the weather conditions in past years. The results will help you decide how hot, cold, wet, or windy it might be!

Date:

Astronomy

Jan. 17, 2014 Rise Set
Actual Time 7:23 AM MST 4:42 PM MST
Civil Twilight 6:51 AM MST 5:14 PM MST
Nautical Twilight 6:15 AM MST 5:50 PM MST
Astronomical Twilight 5:40 AM MST 6:24 PM MST
Moon 6:36 PM MST (1/17) 7:47 AM MST (1/17)
Length of Visible Light 10h 23m
Length of Day
9h 19m
Full, 98% of the Moon is Illuminated
Jan 17
Full
Jan 23
Last Quarter
Jan 30
New
Feb 6
First Quarter
Feb 14
Full

Hourly Weather History & Observations

Time (MST) Temp. Windchill Dew Point Humidity Pressure Visibility Wind Dir Wind Speed Gust Speed Precip Events Conditions
12:58 AM 22.8 °F 15.5 °F 13.1 °F 66% 30.26 in 10.0 mi WSW 5.8 mph - N/A   Clear
1:58 AM 22.5 °F 15.1 °F 12.9 °F 67% 30.24 in 10.0 mi West 5.8 mph - N/A   Clear
2:58 AM 21.7 °F 13.2 °F 12.7 °F 68% 30.24 in 10.0 mi West 6.9 mph - N/A   Clear
3:58 AM 21.9 °F 14.5 °F 11.1 °F 63% 30.22 in 10.0 mi Variable 5.8 mph - N/A   Clear
4:58 AM 21.6 °F 14.0 °F 11.5 °F 65% 30.21 in 10.0 mi West 5.8 mph - N/A   Overcast
5:58 AM 21.0 °F 13.4 °F 12.6 °F 70% 30.18 in 10.0 mi West 5.8 mph - N/A   Mostly Cloudy
6:58 AM 22.5 °F 16.3 °F 13.3 °F 68% 30.15 in 10.0 mi WSW 4.6 mph - N/A   Overcast
7:58 AM 25.7 °F - 18.3 °F 74% 30.12 in 10.0 mi WSW 2.3 mph - N/A   Overcast
8:12 AM 26.6 °F 22.6 °F 17.6 °F 69% 30.00 in 10.0 mi Variable 3.5 mph - N/A   Light Freezing Rain
8:21 AM 28.4 °F - 15.8 °F 59% 30.00 in 10.0 mi SSW 2.3 mph - N/A   Overcast
8:58 AM 30.0 °F - 18.9 °F 63% 30.10 in 10.0 mi Calm Calm - 0.00 in   Overcast
9:58 AM 32.0 °F 27.5 °F 19.4 °F 60% 30.07 in 10.0 mi WSW 4.6 mph - N/A   Mostly Cloudy
10:10 AM 32.0 °F 27.5 °F 19.4 °F 60% 29.97 in 10.0 mi SW 4.6 mph - N/A   Overcast
10:58 AM 39.2 °F 35.0 °F 21.2 °F 49% 30.05 in 10.0 mi SSW 5.8 mph - N/A   Clear
11:58 AM 42.8 °F - 20.3 °F 41% 30.01 in 10.0 mi Calm Calm - N/A   Clear
12:58 PM 46.8 °F - 21.6 °F 37% 29.98 in 10.0 mi Variable 6.9 mph - N/A   Mostly Cloudy
1:58 PM 47.5 °F - 21.6 °F 36% 29.94 in 10.0 mi NW 9.2 mph - N/A   Mostly Cloudy
2:58 PM 49.5 °F - 21.2 °F 33% 29.93 in 10.0 mi NNW 18.4 mph - N/A   Partly Cloudy
3:58 PM 48.4 °F - 21.0 °F 34% 29.94 in 10.0 mi NW 10.4 mph - N/A   Clear
4:57 PM 39.2 °F 32.0 °F 22.5 °F 51% 29.96 in 10.0 mi NW 11.5 mph - N/A   Scattered Clouds
5:58 PM 43.7 °F 34.1 °F 20.7 °F 40% 29.94 in 10.0 mi NW 26.5 mph 35.7 mph N/A   Clear
6:58 PM 43.5 °F 33.8 °F 21.6 °F 42% 29.94 in 10.0 mi NNW 26.5 mph 33.4 mph N/A   Clear
7:58 PM 43.0 °F 33.3 °F 21.6 °F 43% 29.92 in 10.0 mi NW 25.3 mph 34.5 mph N/A   Clear
8:58 PM 42.8 °F 33.3 °F 21.6 °F 43% 29.91 in 10.0 mi NNW 24.2 mph 36.8 mph N/A   Clear
9:58 PM 41.9 °F 31.5 °F 23.2 °F 47% 29.92 in 10.0 mi NW 27.6 mph 34.5 mph N/A   Clear
10:58 PM 41.9 °F 31.3 °F 23.4 °F 48% 29.89 in 10.0 mi NW 28.8 mph 40.3 mph N/A   Clear
11:28 PM 41.0 °F 29.0 °F 23.0 °F 49% 29.81 in 10.0 mi NNW 35.7 mph 46.0 mph N/A   Clear
11:31 PM 41.0 °F 29.0 °F 23.0 °F 49% 29.81 in 10.0 mi NW 35.7 mph 46.0 mph N/A   Clear
11:35 PM 41.0 °F 29.1 °F 24.8 °F 53% 29.81 in 10.0 mi NW 34.5 mph 46.0 mph N/A   Clear
11:54 PM 41.0 °F 29.1 °F 24.8 °F 53% 29.80 in 10.0 mi NW 34.5 mph 44.9 mph N/A   Clear
11:58 PM 41.0 °F 29.7 °F 24.8 °F 53% 29.85 in 10.0 mi NW 31.1 mph 41.4 mph 0.00 in   Clear